Waarnemingen

Advertentie
Mijn weer
San Sebastian/Igueldo, Spanje (8027): temperatuur & dauwpunt: 19.09.2018 11:00:00 - 25.09.2018 11:00:00 (CEST)San Sebastian/Igueldo, Spanje (8027): windsnelheid: 19.09.2018 11:00:00 - 25.09.2018 11:00:00 (CEST)San Sebastian/Igueldo, Spanje (8027): windrichting: 19.09.2018 11:00:00 - 25.09.2018 11:00:00 (CEST)San Sebastian/Igueldo, Spanje (8027): luchtdruk: 19.09.2018 11:00:00 - 25.09.2018 11:00:00 (CEST)San Sebastian/Igueldo, Spanje (8027): zicht: 19.09.2018 11:00:00 - 25.09.2018 11:00:00 (CEST)
Datum & Tijd tt [°C] td [°C] ff [km/u] ff [kn] dd ppp [hPa] vv [km]
25.09.2018 11:00:00 13,3 10,5 8 4 WNW 1028,7 50
25.09.2018 10:00:00 - - - - - - -
25.09.2018 09:00:00 - - - - - - -
25.09.2018 08:00:00 11,2 8,9 2 1 WNW 1028,6 50
25.09.2018 07:00:00 - - - - - - -
25.09.2018 06:00:00 - - - - - - -
25.09.2018 05:00:00 10,8 8,4 2 1 ONO 1029,1 50
25.09.2018 04:00:00 - - - - - - -
25.09.2018 03:00:00 - - - - - - -
25.09.2018 02:00:00 13,5 9,7 8 4 N 1029,4 50
25.09.2018 01:00:00 - - - - - - -
25.09.2018 00:00:00 - - - - - - -
24.09.2018 23:00:00 13,4 8,9 9 5 W 1030,2 50
24.09.2018 22:00:00 - - - - - - -
24.09.2018 21:00:00 - - - - - - -
24.09.2018 20:00:00 13,6 8,4 8 4 WNW 1030,3 50
24.09.2018 19:00:00 - - - - - - -
24.09.2018 18:00:00 - - - - - - -
24.09.2018 17:00:00 14,6 10,4 13 7 NNW 1030,3 50
24.09.2018 16:00:00 - - - - - - -
24.09.2018 15:00:00 - - - - - - -
24.09.2018 14:00:00 15,4 12,2 15 8 NNW 1031,1 50
24.09.2018 13:00:00 - - - - - - -
24.09.2018 12:00:00 - - - - - - -
24.09.2018 11:00:00 14,7 13,4 13 7 NNO 1030,9 50
24.09.2018 10:00:00 - - - - - - -
24.09.2018 09:00:00 - - - - - - -
24.09.2018 08:00:00 14,8 14,2 18 10 N 1028,9 35
24.09.2018 07:00:00 - - - - - - -
24.09.2018 06:00:00 - - - - - - -
24.09.2018 05:00:00 16,0 16,0 21 11 N 1027,9 0,1
24.09.2018 04:00:00 - - - - - - -
24.09.2018 03:00:00 - - - - - - -
24.09.2018 02:00:00 18,0 18,0 22 12 N 1026,9 0,1
24.09.2018 01:00:00 - - - - - - -
24.09.2018 00:00:00 - - - - - - -
23.09.2018 23:00:00 18,6 18,4 9 5 W 1026,8 10
23.09.2018 22:00:00 - - - - - - -
23.09.2018 21:00:00 - - - - - - -
23.09.2018 20:00:00 19,2 18,5 18 10 WNW 1025,9 2,0
23.09.2018 19:00:00 - - - - - - -
23.09.2018 18:00:00 - - - - - - -
23.09.2018 17:00:00 19,6 18,3 15 8 W 1024,6 10
23.09.2018 16:00:00 - - - - - - -
23.09.2018 15:00:00 - - - - - - -
23.09.2018 14:00:00 20,6 18,4 15 8 NW 1023,7 40
23.09.2018 13:00:00 - - - - - - -
23.09.2018 12:00:00 - - - - - - -
23.09.2018 11:00:00 20,0 18,1 4 2 NW 1023,9 40
23.09.2018 10:00:00 - - - - - - -
23.09.2018 09:00:00 - - - - - - -
23.09.2018 08:00:00 17,4 15,7 5 3 ZZO 1023,5 35
23.09.2018 07:00:00 - - - - - - -
23.09.2018 06:00:00 - - - - - - -
23.09.2018 05:00:00 17,4 15,4 9 5 ZZO 1023,9 30
23.09.2018 04:00:00 - - - - - - -
23.09.2018 03:00:00 - - - - - - -
23.09.2018 02:00:00 19,0 16,0 5 3 W 1025,0 30
23.09.2018 01:00:00 - - - - - - -
23.09.2018 00:00:00 - - - - - - -
22.09.2018 23:00:00 20,1 15,5 8 4 ZW 1024,4 35
22.09.2018 22:00:00 - - - - - - -
22.09.2018 21:00:00 - - - - - - -
22.09.2018 20:00:00 22,2 15,1 11 6 W 1023,0 45
22.09.2018 19:00:00 - - - - - - -
22.09.2018 18:00:00 - - - - - - -
22.09.2018 17:00:00 23,0 16,8 11 6 NW 1022,9 40
22.09.2018 16:00:00 - - - - - - -
22.09.2018 15:00:00 - - - - - - -
22.09.2018 14:00:00 22,5 18,7 4 2 NO 1022,9 30
22.09.2018 13:00:00 - - - - - - -
22.09.2018 12:00:00 - - - - - - -
22.09.2018 11:00:00 - - - - - - -
22.09.2018 10:00:00 - - - - - - -
22.09.2018 09:00:00 - - - - - - -
22.09.2018 08:00:00 16,3 16,3 5 3 ZZO 1023,2 20
22.09.2018 07:00:00 - - - - - - -
22.09.2018 06:00:00 - - - - - - -
22.09.2018 05:00:00 17,2 16,9 9 5 ZO 1023,4 20
22.09.2018 04:00:00 - - - - - - -
22.09.2018 03:00:00 - - - - - - -
22.09.2018 02:00:00 17,2 16,6 4 2 ONO 1024,1 12
22.09.2018 01:00:00 - - - - - - -
22.09.2018 00:00:00 - - - - - - -
21.09.2018 23:00:00 17,4 17,1 8 4 NNO 1023,9 12
21.09.2018 22:00:00 - - - - - - -
21.09.2018 21:00:00 - - - - - - -
21.09.2018 20:00:00 18,0 17,7 8 4 NNW 1023,2 8
21.09.2018 19:00:00 - - - - - - -
21.09.2018 18:00:00 - - - - - - -
21.09.2018 17:00:00 19,7 15,6 24 13 WNW 1022,2 35
21.09.2018 16:00:00 - - - - - - -
21.09.2018 15:00:00 - - - - - - -
21.09.2018 14:00:00 22,4 13,2 15 8 WNW 1021,2 40
21.09.2018 13:00:00 - - - - - - -
21.09.2018 12:00:00 - - - - - - -
21.09.2018 11:00:00 19,8 18,5 8 4 ZZO 1020,6 30
21.09.2018 10:00:00 - - - - - - -
21.09.2018 09:00:00 - - - - - - -
21.09.2018 08:00:00 17,8 17,5 4 2 Z 1018,6 15
21.09.2018 07:00:00 - - - - - - -
21.09.2018 06:00:00 - - - - - - -
21.09.2018 05:00:00 18,8 16,2 4 2 OZO 1017,8 12
21.09.2018 04:00:00 - - - - - - -
21.09.2018 03:00:00 - - - - - - -
21.09.2018 02:00:00 18,7 17,0 5 3 ZZO 1017,8 15
21.09.2018 01:00:00 - - - - - - -
21.09.2018 00:00:00 - - - - - - -
20.09.2018 23:00:00 19,4 18,4 4 2 ZZW 1018,0 15
20.09.2018 22:00:00 - - - - - - -
20.09.2018 21:00:00 - - - - - - -
20.09.2018 20:00:00 19,6 17,9 16 9 WNW 1017,1 15
20.09.2018 19:00:00 - - - - - - -
20.09.2018 18:00:00 - - - - - - -
20.09.2018 17:00:00 22,7 18,5 8 4 NW 1016,6 20
20.09.2018 16:00:00 - - - - - - -
20.09.2018 15:00:00 - - - - - - -
20.09.2018 14:00:00 21,2 17,4 8 4 NNW 1018,7 15
20.09.2018 13:00:00 - - - - - - -
20.09.2018 12:00:00 - - - - - - -
20.09.2018 11:00:00 20,4 17,4 4 2 NNW 1019,6 20
20.09.2018 10:00:00 - - - - - - -
20.09.2018 09:00:00 - - - - - - -
20.09.2018 08:00:00 18,2 17,0 9 5 ONO 1020,6 15
20.09.2018 07:00:00 - - - - - - -
20.09.2018 06:00:00 - - - - - - -
20.09.2018 05:00:00 18,8 17,8 8 4 NO 1021,5 25
20.09.2018 04:00:00 - - - - - - -
20.09.2018 03:00:00 - - - - - - -
20.09.2018 02:00:00 19,2 18,0 4 2 ONO 1022,1 20
20.09.2018 01:00:00 - - - - - - -
20.09.2018 00:00:00 - - - - - - -
19.09.2018 23:00:00 19,4 18,7 5 3 NNW 1022,1 20
19.09.2018 22:00:00 - - - - - - -
19.09.2018 21:00:00 - - - - - - -
19.09.2018 20:00:00 20,0 18,7 2 1 NNW 1021,4 15
19.09.2018 19:00:00 - - - - - - -
19.09.2018 18:00:00 - - - - - - -
19.09.2018 17:00:00 21,4 18,6 13 7 NW 1020,9 20
19.09.2018 16:00:00 - - - - - - -
19.09.2018 15:00:00 - - - - - - -
19.09.2018 14:00:00 21,4 17,8 9 5 NNW 1020,9 30
19.09.2018 13:00:00 - - - - - - -
19.09.2018 12:00:00 - - - - - - -
19.09.2018 11:00:00 19,8 17,9 4 2 WNW 1021,3 11

tt = temperatuur
td = dauwpunt
ff = windsnelheid
dd = windrichting
ppp = luchtdruk
vv = zicht

Weerstations in de omgeving